Starlink 34525

operational
NORAD ID: 64678 Int'l Des: 2025-139 Owner: SPXS Country: US Constellation: starlink
LEOCIRCULAR

关于 Starlink 34525

正在加载描述...

实时位置

正在加载3D地球...

即将过境

高度历史

Altitude vs Time

uPlot chart will show altitude changes over time

两行轨道根数

1 64678U 25139Q 26095.23400389 -.00001634 00000-0 -43095-4 0 9993
2 64678 53.1594 4.0627 0001051 107.3647 252.7469 15.30175793 44345
Epoch: Apr 5, 2026 • Age: 14 hours

当前状态

高度 485.4 km
速度 7.62 km/s
星下点 -31.81°S, 88.11°E
发射日期 Jun 28, 2025
运行时间 0.7 years
类型 internet

技术详情

分类 Payload
质量 575.00 kg
干质量 530.00 kg
总质量 575.00 kg
长度 0.30 m
直径 4.10 m
跨度 29.00 m
形状 Box + pan
制造商 SPXS
平台类型 Starlink V2MO
阶段状态 In Orbit
所有者/国家 SPXS/US

大型星座

Loading constellations...